Weather History for Modesto, CA

Change the Weather History Date:

Monday, March 31, 2014

  Actual Average Record
Temperature  
Mean Temperature 55 °F -  
Max Temperature 61 °F 71 °F 88 °F (1966)
Min Temperature 48 °F 47 °F 35 °F (1938)
Degree Days  
Heating Degree Days 10 6  
Month to date heating degree days 158 237  
Since 1 July heating degree days 1856 2005  
Cooling Degree Days 0 0  
Month to date cooling degree days 0 5  
Year to date cooling degree days 0 5  
Growing Degree Days 3 (Base 50)    
Moisture  
Dew Point 30 °F    
Average Humidity 57    
Maximum Humidity 86    
Minimum Humidity 27    
Precipitation  
Precipitation T in 0.04 in 1.64 in (1982)
Month to date precipitation 1.58 2.04  
Year to date precipitation 4.50 7.03  
Since 1 July precipitation 5.99 11.39  
Snow  
Snow 0.00 in - - ()
Month to date snowfall 0.0  
Since 1 July snowfall 0.0  
Snow Depth -    
Sea Level Pressure  
Sea Level Pressure 29.94 in    
Wind  
Wind Speed 5 mph (SE)    
Max Wind Speed 21 mph    
Max Gust Speed 32 mph    
Visibility 10 miles    
Events Rain    
T = Trace of Precipitation, MM = Missing Value Source: NWS Daily Summary

Daily Weather History Graph

Daily Weather History Graph

Search for Another Location

Airport:

Trip Planner

Search our weather history database for the weather conditions in past years. The results will help you decide how hot, cold, wet, or windy it might be!

Date:

Astronomy

Mar. 31, 2014 Rise Set
Actual Time 6:50 AM PDT 7:25 PM PDT
Civil Twilight 6:24 AM PDT 7:52 PM PDT
Nautical Twilight 5:53 AM PDT 8:23 PM PDT
Astronomical Twilight 5:21 AM PDT 8:55 PM PDT
Moon 7:18 AM PDT (3/31) 8:48 PM PDT (3/31)
Length of Visible Light 13h 28m
Length of Day
12h 35m
New Moon, 1% of the Moon is Illuminated
Mar 31
New Moon
Apr 7
First Quarter
Apr 15
Full
Apr 22
Last Quarter
Apr 28
New

Hourly Weather History & Observations

Time (PDT) Temp. Windchill Dew Point Humidity Pressure Visibility Wind Dir Wind Speed Gust Speed Precip Events Conditions
12:53 AM 51.1 °F - 41.0 °F 68% 30.08 in 10.0 mi North 8.1 mph - N/A   Scattered Clouds
1:53 AM 52.0 °F - 43.0 °F 71% 30.06 in 10.0 mi North 5.8 mph - N/A   Overcast
2:53 AM 50.0 °F - 42.1 °F 74% 30.06 in 10.0 mi Calm Calm - N/A   Scattered Clouds
3:53 AM 50.0 °F - 41.0 °F 71% 30.03 in 10.0 mi Calm Calm - N/A   Partly Cloudy
4:53 AM 48.9 °F - 44.1 °F 83% 30.03 in 10.0 mi Calm Calm - N/A   Overcast
5:53 AM 48.9 °F - 30.9 °F 50% 30.01 in 10.0 mi Calm Calm - N/A   Mostly Cloudy
6:53 AM 48.9 °F - 30.9 °F 50% 30.01 in 10.0 mi Calm Calm - N/A   Partly Cloudy
7:53 AM 48.9 °F - 30.9 °F 50% 29.99 in 10.0 mi Calm Calm - N/A   Scattered Clouds
8:53 AM 53.1 °F - 30.0 °F 41% 29.98 in 10.0 mi SE 6.9 mph - N/A   Mostly Cloudy
9:53 AM 54.0 °F - 28.0 °F 37% 29.97 in 10.0 mi SSE 8.1 mph - N/A   Mostly Cloudy
10:53 AM 57.0 °F - 30.0 °F 36% 29.96 in 10.0 mi SE 12.7 mph - N/A   Clear
11:53 AM 60.1 °F - 30.9 °F 33% 29.93 in 10.0 mi SSE 10.4 mph 19.6 mph N/A   Partly Cloudy
12:53 PM 60.1 °F - 27.0 °F 28% 29.91 in 10.0 mi SSE 9.2 mph 18.4 mph N/A   Partly Cloudy
1:53 PM 60.1 °F - 26.1 °F 27% 29.88 in 10.0 mi SSE 9.2 mph - N/A   Overcast
2:53 PM 59.0 °F - 28.9 °F 32% 29.84 in 10.0 mi SE 12.7 mph 21.9 mph N/A   Mostly Cloudy
3:53 PM 57.9 °F - 28.0 °F 32% 29.83 in 10.0 mi SW 16.1 mph 27.6 mph N/A   Overcast
4:53 PM 55.0 °F - 28.0 °F 35% 29.84 in 10.0 mi SW 13.8 mph 21.9 mph 0.00 in Rain Light Rain
5:53 PM 50.0 °F - 21.0 °F 32% 29.84 in 10.0 mi South 5.8 mph - 0.04 in Rain Light Rain
6:53 PM 50.0 °F - 28.0 °F 43% 29.84 in 10.0 mi Calm Calm - 0.01 in   Overcast
7:53 PM 50.0 °F - 19.9 °F 31% 29.85 in 10.0 mi ESE 3.5 mph - N/A   Overcast
8:53 PM 48.9 °F - 21.9 °F 35% 29.88 in 10.0 mi Calm Calm - N/A   Partly Cloudy
9:53 PM 46.9 °F - 27.0 °F 46% 29.91 in 10.0 mi ENE 4.6 mph - N/A   Clear
10:53 PM 46.0 °F 43.9 °F 19.9 °F 35% 29.93 in 10.0 mi ESE 4.6 mph - N/A   Clear
11:53 PM 44.1 °F 41.5 °F 21.9 °F 42% 29.95 in 10.0 mi SE 4.6 mph - N/A   Clear